Location: Domont
(49.0278°N, 2.3264°E)
Time: 06:06:42
(UTC+00:00)

Envisat - Pass Details

Date: 31 January 2022
Orbit: 764 x 765 km, 98.2° (Epoch: 22 May)

Event Time Altitude Azimuth Distance (km) Brightness Sun altitude
Rises 04:30:09 0° 17° (NNE) 3,243 6.5 -28.4°
Reaches altitude 10° 04:32:31 10° 21° (NNE) 2,312 5.8 -28.0°
Maximum altitude 04:37:32 57° 100° (E) 905 3.5 -27.2°
Drops below altitude 10° 04:42:30 10° 179° (S) 2,297 5.4 -26.3°
Sets 04:44:51 0° 184° (S) 3,219 6.2 -26.0°
